4XCHA LLHA-LLHA

Flight info

Callsign 4XCHA
Flight time 0h 9m
Altitude 1000
Route CIRCUITS
Aircraft C172/L-V/N

Departure

Time 2026-04-25 15:28
Airport Uri Michaeli Haifa International Airport (LLHA)

Arrival

Time 2026-04-25 15:37
Airport Uri Michaeli Haifa International Airport (LLHA)
Time Latitude Longitude Altitude Speed Heading
2026-04-25 15:20 32.81155 35.04175 20 ft 0 kts 140°
2026-04-25 15:24 32.81146 35.04188 20 ft 3 kts 122°
2026-04-25 15:24 32.81150 35.04218 21 ft 8 kts 58°
2026-04-25 15:25 32.81158 35.04242 21 ft 0 kts 71°
2026-04-25 15:26 32.81164 35.04290 22 ft 12 kts 110°
2026-04-25 15:26 32.81059 35.04357 21 ft 24 kts 161°
2026-04-25 15:26 32.80876 35.04437 22 ft 33 kts 159°
2026-04-25 15:27 32.80646 35.04537 21 ft 33 kts 165°
2026-04-25 15:27 32.80499 35.04600 16 ft 15 kts 222°
2026-04-25 15:27 32.80541 35.04582 17 ft 18 kts 335°
2026-04-25 15:28 32.80820 35.04464 33 ft 62 kts 332°
2026-04-25 15:28 32.81237 35.04285 248 ft 64 kts 335°
2026-04-25 15:28 32.81643 35.04090 538 ft 66 kts 337°
2026-04-25 15:28 32.82078 35.03922 757 ft 68 kts 342°
2026-04-25 15:29 32.82555 35.03756 935 ft 74 kts 348°
2026-04-25 15:29 32.83069 35.03976 989 ft 87 kts 34°
2026-04-25 15:29 32.83337 35.04667 890 ft 118 kts 107°
2026-04-25 15:29 32.82872 35.05444 1097 ft 110 kts 123°
2026-04-25 15:30 32.82340 35.06133 1236 ft 112 kts 134°
2026-04-25 15:30 32.81743 35.06842 1143 ft 127 kts 140°
2026-04-25 15:30 32.80979 35.07358 1156 ft 124 kts 154°
2026-04-25 15:30 32.80179 35.07688 1153 ft 123 kts 175°
2026-04-25 15:31 32.79354 35.07561 1106 ft 118 kts 208°
2026-04-25 15:31 32.78747 35.07048 1028 ft 106 kts 228°
2026-04-25 15:31 32.78330 35.06334 905 ft 104 kts 253°
2026-04-25 15:31 32.78483 35.05624 778 ft 95 kts 318°
2026-04-25 15:32 32.79019 35.05224 632 ft 95 kts 332°
2026-04-25 15:32 32.79625 35.04912 508 ft 93 kts 343°
2026-04-25 15:32 32.80181 35.04748 264 ft 67 kts 334°
2026-04-25 15:33 32.80866 35.04438 22 ft 51 kts 351°
2026-04-25 15:33 32.81250 35.04271 127 ft 64 kts 325°
2026-04-25 15:33 32.81683 35.04103 412 ft 67 kts 335°
2026-04-25 15:33 32.82160 35.03866 634 ft 79 kts 340°
2026-04-25 15:34 32.82687 35.03753 801 ft 77 kts
2026-04-25 15:34 32.83141 35.04216 816 ft 101 kts 60°
2026-04-25 15:34 32.82979 35.05043 861 ft 110 kts 134°
2026-04-25 15:34 32.82617 35.05436 1050 ft 106 kts 138°
2026-04-25 15:35 32.81219 35.06928 1117 ft 126 kts 135°
2026-04-25 15:35 32.80478 35.07459 1102 ft 129 kts 163°
2026-04-25 15:35 32.79611 35.07635 1176 ft 124 kts 185°
2026-04-25 15:36 32.78386 35.06422 1016 ft 108 kts 248°
2026-04-25 15:36 32.78357 35.05665 988 ft 94 kts 313°
2026-04-25 15:36 32.78944 35.05206 721 ft 96 kts 334°
2026-04-25 15:37 32.79513 35.04976 594 ft 77 kts 338°
2026-04-25 15:37 32.79998 35.04816 369 ft 63 kts 340°
2026-04-25 15:37 32.80412 35.04643 136 ft 66 kts 336°
2026-04-25 15:37 32.80759 35.04491 21 ft 40 kts 329°
2026-04-25 15:38 32.81105 35.04339 66 ft 66 kts 334°
2026-04-25 15:38 32.81560 35.04147 295 ft 68 kts 337°
2026-04-25 15:38 32.82024 35.03945 618 ft 71 kts 336°
2026-04-25 15:38 32.82527 35.03736 709 ft 82 kts 340°
2026-04-25 15:39 32.83066 35.03465 773 ft 87 kts 328°
2026-04-25 15:39 32.83448 35.02931 912 ft 87 kts 294°
2026-04-25 15:39 32.83563 35.02158 932 ft 103 kts 275°
2026-04-25 15:39 32.83566 35.01292 987 ft 109 kts 272°
2026-04-25 15:40 32.83563 35.00371 985 ft 113 kts 275°
2026-04-25 15:40 32.83584 35.00055 983 ft 114 kts 279°
2026-04-25 15:40 32.83820 34.98509 930 ft 120 kts 281°
2026-04-25 15:40 32.83842 34.97517 1014 ft 116 kts 265°
2026-04-25 15:41 32.83576 34.96606 1023 ft 122 kts 244°
2026-04-25 15:41 32.83076 34.95797 1078 ft 123 kts 227°
2026-04-25 15:41 32.82361 34.95284 1156 ft 122 kts 197°
2026-04-25 15:41 32.81479 34.95171 1085 ft 131 kts 182°
2026-04-25 15:42 32.80579 34.95221 1072 ft 128 kts 173°
2026-04-25 15:42 32.79687 34.95322 1002 ft 131 kts 177°
2026-04-25 15:42 32.78781 34.95309 1011 ft 127 kts 182°
2026-04-25 15:42 32.77909 34.95262 1013 ft 125 kts 183°
2026-04-25 15:43 32.77053 34.95115 996 ft 122 kts 198°
2026-04-25 15:43 32.76247 34.94858 1011 ft 119 kts 180°
2026-04-25 15:43 32.75458 34.95207 1010 ft 125 kts 158°
2026-04-25 15:43 32.74633 34.95602 1134 ft 125 kts 154°
2026-04-25 15:44 32.73807 34.95967 1185 ft 126 kts 162°
2026-04-25 15:44 32.72970 34.96210 1194 ft 125 kts 170°
2026-04-25 15:44 32.72130 34.96343 1344 ft 117 kts 169°
2026-04-25 15:44 32.71345 34.96481 1461 ft 113 kts 174°
2026-04-25 15:45 32.70561 34.96584 1575 ft 114 kts 174°
2026-04-25 15:45 32.69789 34.96638 1773 ft 102 kts 184°
2026-04-25 15:45 32.69088 34.96576 1959 ft 104 kts 191°
2026-04-25 15:45 32.68843 34.96543 2007 ft 105 kts 185°
2026-04-25 15:46 32.67536 34.96639 2079 ft 120 kts 180°
2026-04-25 15:46 32.66715 34.96664 2232 ft 118 kts 180°
2026-04-25 15:46 32.65910 34.96677 2270 ft 115 kts 184°
2026-04-25 15:46 32.65113 34.96611 2199 ft 113 kts 186°
2026-04-25 15:47 32.64319 34.96594 2249 ft 114 kts 186°
2026-04-25 15:47 32.63508 34.96434 2186 ft 119 kts 198°
2026-04-25 15:47 32.62721 34.96107 2110 ft 119 kts 202°
2026-04-25 15:47 32.61950 34.95873 2143 ft 114 kts 188°
2026-04-25 15:48 32.61149 34.95759 2047 ft 120 kts 191°
2026-04-25 15:48 32.60332 34.95551 2050 ft 119 kts 202°
2026-04-25 15:48 32.59583 34.95159 2031 ft 118 kts 205°
2026-04-25 15:48 32.58914 34.94670 2025 ft 110 kts 221°
2026-04-25 15:49 32.58328 34.94092 2051 ft 110 kts 224°
2026-04-25 15:49 32.57753 34.93501 2014 ft 110 kts 219°
2026-04-25 15:49 32.57127 34.92963 1989 ft 112 kts 218°
2026-04-25 15:49 32.56541 34.92360 2059 ft 113 kts 224°
2026-04-25 15:50 32.55960 34.91737 2108 ft 113 kts 225°
2026-04-25 15:50 32.55332 34.91211 2216 ft 114 kts 211°
2026-04-25 15:50 32.54664 34.90834 2186 ft 102 kts 208°
2026-04-25 15:50 32.54065 34.90535 1934 ft 88 kts 207°
2026-04-25 15:51 32.53469 34.90235 1829 ft 93 kts 204°
2026-04-25 15:51 32.53272 34.90141 1812 ft 96 kts 203°
2026-04-25 15:51 32.52169 34.89660 1822 ft 100 kts 202°
2026-04-25 15:51 32.51525 34.89392 1786 ft 99 kts 198°
2026-04-25 15:52 32.50837 34.89163 1656 ft 107 kts 195°
2026-04-25 15:52 32.50143 34.88960 1739 ft 97 kts 196°
2026-04-25 15:52 32.49539 34.88708 1799 ft 89 kts 209°
2026-04-25 15:52 32.49009 34.88410 1891 ft 81 kts 205°
2026-04-25 15:53 32.48491 34.88119 1912 ft 84 kts 207°
2026-04-25 15:53 32.47955 34.87777 1847 ft 93 kts 208°
2026-04-25 15:53 32.47315 34.87506 1779 ft 99 kts 198°
2026-04-25 15:53 32.46616 34.87274 1563 ft 115 kts 193°
2026-04-25 15:54 32.45813 34.87082 1368 ft 117 kts 191°
2026-04-25 15:54 32.45030 34.86939 1318 ft 110 kts 187°
2026-04-25 15:54 32.44300 34.86865 1329 ft 103 kts 184°
2026-04-25 15:54 32.43570 34.86806 1230 ft 107 kts 184°
2026-04-25 15:55 32.42816 34.86743 1208 ft 100 kts 183°
2026-04-25 15:55 32.42107 34.86642 1097 ft 108 kts 189°
2026-04-25 15:55 32.41381 34.86517 1076 ft 105 kts 188°
2026-04-25 15:55 32.40668 34.86364 1034 ft 103 kts 192°
2026-04-25 15:56 32.39962 34.86188 994 ft 103 kts 191°
2026-04-25 15:56 32.39273 34.86036 941 ft 105 kts 191°
2026-04-25 15:56 32.38539 34.85884 913 ft 101 kts 191°
2026-04-25 15:56 32.37830 34.85742 823 ft 107 kts 190°
2026-04-25 15:57 32.37086 34.85595 692 ft 112 kts 192°
2026-04-25 15:57 32.36336 34.85453 678 ft 104 kts 186°
2026-04-25 15:57 32.35621 34.85343 654 ft 103 kts 191°
2026-04-25 15:57 32.34938 34.85194 667 ft 97 kts 192°
2026-04-25 15:58 32.34306 34.85024 726 ft 93 kts 194°
2026-04-25 15:58 32.33654 34.84888 753 ft 95 kts 191°
2026-04-25 15:58 32.33016 34.84679 745 ft 96 kts 203°
2026-04-25 15:58 32.32410 34.84390 786 ft 91 kts 200°
2026-04-25 15:59 32.31889 34.84748 859 ft 98 kts 117°
2026-04-25 15:59 32.31677 34.85506 1094 ft 96 kts 103°
2026-04-25 15:59 32.31621 34.86316 1217 ft 104 kts 82°
2026-04-25 15:59 32.31627 34.87151 1357 ft 105 kts 97°
2026-04-25 16:00 32.31458 34.87988 1503 ft 104 kts 108°
2026-04-25 16:00 32.31375 34.88248 1533 ft 105 kts 111°
2026-04-25 16:00 32.30594 34.89232 1869 ft 94 kts 159°
2026-04-25 16:00 32.29948 34.89438 1941 ft 104 kts 173°
2026-04-25 16:01 32.29210 34.89511 1974 ft 111 kts 177°
2026-04-25 16:01 32.28422 34.89605 2057 ft 114 kts 174°
2026-04-25 16:01 32.27630 34.89720 2111 ft 116 kts 178°
2026-04-25 16:01 32.26816 34.89611 2126 ft 117 kts 195°
2026-04-25 16:02 32.26004 34.89396 2094 ft 121 kts 194°
2026-04-25 16:02 32.25225 34.89265 2337 ft 110 kts 186°
2026-04-25 16:02 32.24401 34.89155 2234 ft 124 kts 190°
2026-04-25 16:02 32.23566 34.88953 2253 ft 119 kts 200°
2026-04-25 16:03 32.22826 34.88661 2120 ft 103 kts 202°
2026-04-25 16:03 32.22161 34.88351 2037 ft 111 kts 205°
2026-04-25 16:03 32.21443 34.87982 1969 ft 112 kts 205°
2026-04-25 16:03 32.20751 34.87588 1917 ft 107 kts 207°
2026-04-25 16:04 32.20174 34.87067 1563 ft 105 kts 227°
2026-04-25 16:04 32.19721 34.86374 1272 ft 106 kts 236°
2026-04-25 16:04 32.19239 34.85776 1058 ft 99 kts 213°
2026-04-25 16:04 32.18625 34.85446 811 ft 86 kts 199°
2026-04-25 16:05 32.18075 34.85253 683 ft 77 kts 198°
2026-04-25 16:05 32.17649 34.84990 609 ft 67 kts 252°
2026-04-25 16:05 32.17843 34.84077 213 ft 54 kts 292°
2026-04-25 16:06 32.17927 34.83808 127 ft 48 kts 288°
2026-04-25 16:06 32.18012 34.83517 105 ft 30 kts 292°
2026-04-25 16:06 32.18057 34.83338 100 ft 15 kts 245°
2026-04-25 16:06 32.18040 34.83306 101 ft 4 kts 284°
2026-04-25 16:07 32.18056 34.83255 100 ft 8 kts 288°
2026-04-25 16:07 32.18069 34.83210 99 ft 8 kts 292°
2026-04-25 16:07 32.18058 34.83163 99 ft 2 kts 126°
2026-04-25 16:07 32.18064 34.83172 99 ft 0 kts 18°